START_TIME,STEP,MOV.,M6,t_acc.,M7,t_acc.,M19,t_acc.,H36,t_acc.
1979-07-02 15:00:27.980 ,1,0,0.,12.0,0.,12.0,0.,12.0,0.,12.0
1979-07-02 15:00:39.980 ,1,0,0.,12.0,0.,12.0,0.,12.0,0.,12.0
1979-07-02 15:00:51.980 ,2,1,0.,12.0,0.,12.0,0.,12.0,0.,12.0
1979-07-02 15:01:03.980 ,2,1,0.,12.0,0.,12.0,0.,12.0,0.,12.0
1979-07-02 15:01:15.980 ,2,0,0.,12.0,0.,12.0,0.,12.0,0.,12.0
1979-07-02 15:01:27.980 ,2,0,0.,12.0,0.,12.0,0.,12.0,0.,12.0
1979-07-02 15:01:39.980 ,3,1,0.,12.0,0.,12.0,0.,12.0,0.,12.0
1979-07-02 15:01:51.980 ,3,1,0.,12.0,0.,12.0,0.,12.0,0.,12.0
1979-07-02 15:02:03.980 ,3,0,0.,12.0,0.,12.0,0.,12.0,0.,12.0
1979-07-02 15:02:15.980 ,3,0,0.,12.0,0.,12.0,0.,12.0,0.,12.0
1979-07-02 15:02:27.980 ,4,1,0.,12.0,0.,12.0,0.,12.0,0.,12.0
1979-07-02 15:02:39.980 ,4,1,0.,12.0,0.,12.0,0.,12.0,0.,12.0
1979-07-02 15:02:51.980 ,4,0,0.,12.0,0.,12.0,0.,12.0,0.,12.0
1979-07-02 15:03:03.980 ,4,0,0.,12.0,0.,12.0,0.,12.0,0.,12.0
1979-07-02 15:03:15.980 ,5,1,0.,12.0,0.,12.0,0.,12.0,0.,12.0
1979-07-02 15:03:27.980 ,5,1,0.,12.0,0.,12.0,0.,12.0,0.,12.0
1979-07-02 15:03:39.980 ,5,0,0.,12.0,0.,12.0,0.,12.0,0.,12.0
1979-07-02 15:03:51.980 ,5,0,0.,12.0,0.,12.0,0.,12.0,0.,12.0
1979-07-02 15:04:03.980 ,6,1,0.,12.0,0.,12.0,0.,12.0,0.,12.0
1979-07-02 15:04:15.980 ,6,1,0.,12.0,0.,12.0,0.,12.0,0.,12.0
1979-07-02 15:04:27.980 ,6,0,0.,12.0,0.,12.0,0.,12.0,0.,12.0
1979-07-02 15:04:39.980 ,6,0,0.,12.0,0.,12.0,0.,12.0,0.,12.0
1979-07-02 15:04:51.980 ,7,1,0.,12.0,0.,12.0,0.,12.0,0.,12.0
1979-07-02 15:05:03.980 ,7,1,0.,12.0,0.,12.0,0.,12.0,0.,12.0
1979-07-02 15:05:15.980 ,7,0,0.,12.0,0.,12.0,0.,12.0,0.,12.0
1979-07-02 15:05:27.980 ,7,0,0.,12.0,0.,12.0,0.,12.0,0.,12.0
1979-07-02 15:05:39.980 ,7,1,0.,12.0,0.,12.0,0.,12.0,0.,12.0
1979-07-02 15:05:51.980 ,7,1,0.,12.0,0.,12.0,0.,12.0,0.,12.0
1979-07-02 15:06:03.980 ,7,0,0.,12.0,0.,12.0,0.,12.0,0.,12.0
1979-07-02 15:06:15.980 ,7,0,0.,12.0,0.,12.0,0.,12.0,0.,12.0
1979-07-02 15:06:27.980 ,6,1,0.,12.0,0.,12.0,0.,12.0,0.,12.0
1979-07-02 15:06:39.980 ,6,1,0.,12.0,0.,12.0,0.,12.0,0.,12.0
1979-07-02 15:06:51.980 ,6,0,0.,12.0,0.,12.0,0.,12.0,0.,12.0
1979-07-02 15:07:03.980 ,6,0,0.,12.0,0.,12.0,0.,12.0,0.,12.0
1979-07-02 15:07:15.980 ,5,1,0.,12.0,0.,12.0,0.,12.0,0.,12.0
1979-07-02 15:07:27.980 ,5,1,0.,12.0,0.,12.0,0.,12.0,0.,12.0
1979-07-02 15:07:39.980 ,5,0,0.,12.0,0.,12.0,0.,12.0,0.,12.0
1979-07-02 15:07:51.980 ,5,0,0.,12.0,0.,12.0,0.,12.0,0.,12.0
1979-07-02 15:08:03.980 ,4,1,0.,12.0,0.,12.0,0.,12.0,0.,12.0
1979-07-02 15:08:15.980 ,4,1,0.,12.0,0.,12.0,0.,12.0,0.,12.0
1979-07-02 15:08:27.980 ,4,0,0.,12.0,0.,12.0,0.,12.0,0.,12.0
1979-07-02 15:08:39.980 ,4,0,0.,12.0,0.,12.0,0.,12.0,0.,12.0
1979-07-02 15:08:51.980 ,3,1,0.,12.0,0.,12.0,0.,12.0,0.,12.0
1979-07-02 15:09:03.980 ,3,1,0.,12.0,0.,12.0,0.,12.0,0.,12.0
1979-07-02 15:09:15.980 ,3,0,0.,12.0,0.,12.0,0.,12.0,0.,12.0
1979-07-02 15:09:27.980 ,3,0,0.,12.0,0.,12.0,0.,12.0,0.,12.0
1979-07-02 15:09:39.980 ,2,1,0.,12.0,0.,12.0,0.,12.0,0.,12.0
1979-07-02 15:09:51.980 ,2,1,0.,12.0,0.,12.0,0.,12.0,0.,12.0
1979-07-02 15:10:03.980 ,2,0,0.,12.0,0.,12.0,0.,12.0,0.,12.0
1979-07-02 15:10:15.980 ,2,0,0.,12.0,0.,12.0,0.,12.0,0.,12.0
1979-07-02 15:10:27.980 ,1,1,0.,12.0,0.,12.0,0.,12.0,0.,12.0
1979-07-02 15:10:39.980 ,1,1,0.,12.0,0.,12.0,0.,12.0,0.,12.0
1979-07-02 15:10:51.980 ,1,0,0.,12.0,0.,12.0,0.,12.0,0.,12.0
1979-07-02 15:11:03.980 ,1,0,0.,12.0,0.,12.0,0.,12.0,0.,12.0
1979-07-02 15:11:15.980 ,0,1,0.,12.0,0.,12.0,0.,12.0,0.,12.0
1979-07-02 15:11:27.980 ,0,1,0.,12.0,0.,12.0,0.,12.0,0.,12.0
1979-07-02 15:11:39.980 ,0,0,0.,12.0,0.,12.0,0.,12.0,0.,12.0
1979-07-02 15:11:51.980 ,0,0,0.,12.0,0.,12.0,0.,12.0,0.,12.0
1979-07-02 15:12:03.980 ,0,1,0.,12.0,0.,12.0,0.,12.0,0.,12.0
1979-07-02 15:12:15.980 ,0,1,0.,12.0,0.,12.0,0.,12.0,0.,12.0
1979-07-02 15:12:27.980 ,0,0,0.,12.0,0.,12.0,0.,12.0,0.,12.0
1979-07-02 15:12:39.980 ,0,0,0.,12.0,0.,12.0,0.,12.0,0.,12.0
1979-07-02 15:12:51.980 ,1,1,0.,12.0,0.,12.0,0.,12.0,0.,12.0
1979-07-02 15:13:03.980 ,1,1,0.,12.0,0.,12.0,0.,12.0,0.,12.0
1979-07-02 15:13:15.980 ,1,0,0.,12.0,0.,12.0,0.,12.0,0.,12.0
1979-07-02 15:13:27.980 ,1,0,0.,12.0,0.,12.0,0.,12.0,0.,12.0
1979-07-02 15:13:39.980 ,2,1,0.,12.0,0.,12.0,0.,12.0,0.,12.0
1979-07-02 15:13:51.980 ,2,1,0.,12.0,0.,12.0,0.,12.0,0.,12.0
1979-07-02 15:14:03.980 ,2,0,0.,12.0,0.,12.0,0.,12.0,0.,12.0
1979-07-02 15:14:15.980 ,2,0,0.,12.0,0.,12.0,0.,12.0,0.,12.0
1979-07-02 15:14:27.980 ,3,1,0.,12.0,0.,12.0,0.,12.0,0.,12.0
1979-07-02 15:14:39.980 ,3,1,0.,12.0,0.,12.0,0.,12.0,0.,12.0
1979-07-02 15:14:51.980 ,3,0,0.,12.0,0.,12.0,0.,12.0,0.,12.0
1979-07-02 15:15:03.980 ,3,0,0.,12.0,0.,12.0,0.,12.0,0.,12.0
1979-07-02 15:15:15.980 ,4,1,0.,12.0,0.,12.0,0.,12.0,0.,12.0
1979-07-02 15:15:27.980 ,4,1,0.,12.0,0.,12.0,0.,12.0,0.,12.0
1979-07-02 15:15:39.980 ,4,0,0.,12.0,0.,12.0,0.,12.0,0.,12.0
1979-07-02 15:15:51.980 ,4,0,0.,12.0,0.,12.0,0.,12.0,0.,12.0
1979-07-02 15:16:03.980 ,5,1,0.,12.0,0.,12.0,0.,12.0,0.,12.0
1979-07-02 15:16:15.980 ,5,1,0.,12.0,0.,12.0,0.,12.0,0.,12.0
1979-07-02 15:16:27.980 ,5,0,0.,12.0,0.,12.0,0.,12.0,0.,12.0
1979-07-02 15:16:39.980 ,5,0,0.,12.0,0.,12.0,0.,12.0,0.,12.0
1979-07-02 15:16:51.980 ,6,1,0.,12.0,0.,12.0,0.,12.0,0.,12.0
1979-07-02 15:17:03.980 ,6,1,0.,12.0,0.,12.0,0.,12.0,0.,12.0
1979-07-02 15:17:15.980 ,6,0,0.,12.0,0.,12.0,0.,12.0,0.,12.0
1979-07-02 15:17:27.980 ,6,0,0.,12.0,0.,12.0,0.,12.0,0.,12.0
1979-07-02 15:17:39.980 ,7,1,0.,12.0,0.,12.0,0.,12.0,0.,12.0
1979-07-02 15:17:51.980 ,7,1,0.,12.0,0.,12.0,0.,12.0,0.,12.0
1979-07-02 15:18:03.980 ,7,0,0.,12.0,0.,12.0,0.,12.0,0.,12.0
1979-07-02 15:18:15.980 ,7,0,0.,12.0,0.,12.0,0.,12.0,0.,12.0
1979-07-02 15:18:27.980 ,7,1,0.,12.0,0.,12.0,0.,12.0,0.,12.0
1979-07-02 15:18:39.980 ,7,1,0.,12.0,0.,12.0,0.,12.0,0.,12.0
1979-07-02 15:18:51.980 ,7,0,0.,12.0,0.,12.0,0.,12.0,0.,12.0
1979-07-02 15:19:03.980 ,7,0,0.,12.0,0.,12.0,0.,12.0,0.,12.0
1979-07-02 15:19:15.980 ,6,1,0.,12.0,0.,12.0,0.,12.0,0.,12.0
1979-07-02 15:19:27.980 ,6,1,0.,12.0,0.,12.0,0.,12.0,0.,12.0
1979-07-02 15:19:39.980 ,6,0,0.,12.0,0.,12.0,0.,12.0,0.,12.0
1979-07-02 15:19:51.980 ,6,0,0.,12.0,0.,12.0,0.,12.0,0.,12.0
1979-07-02 15:20:03.980 ,5,1,0.,12.0,0.,12.0,0.,12.0,0.,12.0
1979-07-02 15:20:15.980 ,5,1,0.,12.0,0.,12.0,0.,12.0,0.,12.0
1979-07-02 15:20:27.980 ,5,0,0.,12.0,0.,12.0,0.,12.0,0.,12.0
1979-07-02 15:20:39.980 ,5,0,0.,12.0,0.,12.0,0.,12.0,0.,12.0
1979-07-02 15:20:51.980 ,4,1,0.,12.0,0.,12.0,0.,12.0,0.,12.0
1979-07-02 15:21:03.980 ,4,1,0.,12.0,0.,12.0,0.,12.0,0.,12.0
1979-07-02 15:21:15.980 ,4,0,0.,12.0,0.,12.0,0.,12.0,0.,12.0
1979-07-02 15:21:27.980 ,4,0,0.,12.0,0.,12.0,0.,12.0,0.,12.0
1979-07-02 15:21:39.980 ,3,1,0.,12.0,0.,12.0,0.,12.0,0.,12.0
1979-07-02 15:21:51.980 ,3,1,0.,12.0,0.,12.0,0.,12.0,0.,12.0
1979-07-02 15:22:03.980 ,3,0,0.,12.0,0.,12.0,0.,12.0,0.,12.0
1979-07-02 15:22:15.980 ,3,0,0.,12.0,0.,12.0,0.,12.0,0.,12.0
1979-07-02 15:22:27.980 ,2,1,0.,12.0,0.,12.0,0.,12.0,0.,12.0
1979-07-02 15:22:39.980 ,2,1,0.,12.0,0.,12.0,0.,12.0,0.,12.0
1979-07-02 15:22:51.980 ,2,0,0.,12.0,0.,12.0,0.,12.0,0.,12.0
1979-07-02 15:23:03.980 ,2,0,0.,12.0,0.,12.0,0.,12.0,0.,12.0
1979-07-02 15:23:15.980 ,1,1,0.,12.0,0.,12.0,0.,12.0,0.,12.0
1979-07-02 15:23:27.980 ,1,1,0.,12.0,0.,12.0,0.,12.0,0.,12.0
1979-07-02 15:23:39.980 ,1,0,0.,12.0,0.,12.0,0.,12.0,0.,12.0
1979-07-02 15:23:51.980 ,1,0,0.,12.0,0.,12.0,0.,12.0,0.,12.0
1979-07-02 15:24:03.980 ,0,1,0.,12.0,0.,12.0,0.,12.0,0.,12.0
1979-07-02 15:24:15.980 ,0,1,0.,12.0,0.,12.0,0.,12.0,0.,12.0
1979-07-02 15:24:27.980 ,0,0,0.,12.0,0.,12.0,0.,12.0,0.,12.0
1979-07-02 15:24:39.980 ,0,0,0.,12.0,0.,12.0,0.,12.0,0.,12.0
1979-07-02 15:24:51.980 ,0,1,0.,12.0,0.,12.0,0.,12.0,0.,12.0
1979-07-02 15:25:03.980 ,0,1,0.,12.0,0.,12.0,0.,12.0,0.,12.0
1979-07-02 15:25:15.980 ,0,0,0.,12.0,0.,12.0,0.,12.0,0.,12.0
1979-07-02 15:25:27.980 ,0,0,0.,12.0,0.,12.0,0.,12.0,0.,12.0
1979-07-02 15:25:39.980 ,1,1,0.,12.0,0.,12.0,0.,12.0,0.,12.0
1979-07-02 15:25:51.980 ,1,1,0.,12.0,0.,12.0,0.,12.0,0.,12.0
1979-07-02 15:26:03.980 ,1,0,0.,12.0,0.,12.0,0.,12.0,0.,12.0
1979-07-02 15:26:15.980 ,1,0,0.,12.0,0.,12.0,0.,12.0,0.,12.0
1979-07-02 15:26:27.980 ,2,1,0.,12.0,0.,12.0,0.,12.0,0.,12.0
1979-07-02 15:26:39.980 ,2,1,0.,12.0,0.,12.0,0.,12.0,0.,12.0
1979-07-02 15:26:51.980 ,2,0,0.,12.0,0.,12.0,0.,12.0,0.,12.0
1979-07-02 15:27:03.980 ,2,0,0.,12.0,0.,12.0,0.,12.0,0.,12.0
1979-07-02 15:27:15.980 ,3,1,0.,12.0,0.,12.0,0.,12.0,0.,12.0
1979-07-02 15:27:27.980 ,3,1,0.,12.0,0.,12.0,0.,12.0,0.,12.0
1979-07-02 15:27:39.980 ,3,0,0.,12.0,0.,12.0,0.,12.0,0.,12.0
1979-07-02 15:27:51.980 ,3,0,0.,12.0,0.,12.0,0.,12.0,0.,12.0
1979-07-02 15:28:03.980 ,4,1,0.,12.0,0.,12.0,0.,12.0,0.,12.0
1979-07-02 15:28:15.980 ,4,1,0.,12.0,0.,12.0,0.,12.0,0.,12.0
1979-07-02 15:28:27.980 ,4,0,0.,12.0,0.,12.0,0.,12.0,0.,12.0
1979-07-02 15:28:39.980 ,4,0,0.,12.0,0.,12.0,0.,12.0,0.,12.0
1979-07-02 15:28:51.980 ,5,1,0.,12.0,0.,12.0,0.,12.0,0.,12.0
1979-07-02 15:29:03.980 ,5,1,0.,12.0,0.,12.0,0.,12.0,0.,12.0
1979-07-02 15:29:15.980 ,5,0,0.,12.0,0.,12.0,0.,12.0,0.,12.0
1979-07-02 15:29:27.980 ,5,0,0.,12.0,0.,12.0,0.,12.0,0.,12.0
1979-07-02 15:29:39.980 ,6,1,0.,12.0,0.,12.0,0.,12.0,0.,12.0
1979-07-02 15:29:51.980 ,6,1,0.,12.0,0.,12.0,0.,12.0,0.,12.0
1979-07-02 15:30:03.980 ,6,0,0.,12.0,0.,12.0,0.,12.0,0.,12.0
1979-07-02 15:30:15.980 ,6,0,0.,12.0,0.,12.0,0.,12.0,0.,12.0
1979-07-02 15:30:27.980 ,7,0,0.,12.0,0.,12.0,0.,12.0,0.,12.0
1979-07-02 15:30:39.980 ,7,0,0.,12.0,0.,12.0,0.,12.0,0.,12.0
1979-07-02 15:30:51.980 ,7,0,0.,12.0,0.,12.0,0.,12.0,0.,12.0
1979-07-02 15:31:03.980 ,7,0,0.,12.0,0.,12.0,0.,12.0,0.,12.0
1979-07-02 15:31:15.980 ,4,1,0.,12.0,0.,12.0,0.,12.0,0.,12.0
1979-07-02 15:31:27.980 ,4,1,0.,12.0,0.,12.0,0.,12.0,0.,12.0
1979-07-02 15:31:39.980 ,0,1,0.,12.0,0.,12.0,0.,12.0,0.,12.0
1979-07-02 15:31:51.980 ,0,1,0.,12.0,0.,12.0,0.,12.0,0.,12.0
1979-07-02 15:32:03.980 ,3,1,0.,12.0,0.,12.0,0.,12.0,0.,12.0
1979-07-02 15:32:15.980 ,3,1,0.,12.0,0.,12.0,0.,12.0,0.,12.0
1979-07-02 15:32:27.980 ,7,1,0.,12.0,0.,12.0,0.,12.0,0.,12.0
1979-07-02 15:32:39.980 ,7,1,0.,12.0,0.,12.0,0.,12.0,0.,12.0
1979-07-02 15:32:51.980 ,4,1,0.,12.0,0.,12.0,0.,12.0,0.,12.0
1979-07-02 15:33:03.980 ,4,1,0.,12.0,0.,12.0,0.,12.0,0.,12.0
1979-07-02 15:33:15.980 ,0,1,0.,12.0,0.,12.0,0.,12.0,0.,12.0
1979-07-02 15:33:27.980 ,0,1,0.,12.0,0.,12.0,0.,12.0,0.,12.0
1979-07-02 15:33:39.980 ,3,1,0.,12.0,0.,12.0,0.,12.0,0.,12.0
1979-07-02 15:33:51.980 ,3,1,0.,12.0,0.,12.0,0.,12.0,0.,12.0
1979-07-02 15:34:03.980 ,7,1,0.,12.0,0.,12.0,0.,12.0,0.,12.0
1979-07-02 15:34:15.980 ,7,1,0.,12.0,0.,12.0,0.,12.0,0.,12.0
1979-07-02 15:34:27.980 ,4,1,0.,12.0,0.,12.0,0.,12.0,0.,12.0
1979-07-02 15:34:39.980 ,4,1,0.,12.0,0.,12.0,0.,12.0,0.,12.0
1979-07-02 15:34:51.980 ,0,1,0.,12.0,0.,12.0,0.,12.0,0.,12.0
1979-07-02 15:35:03.980 ,0,1,0.,12.0,0.,12.0,0.,12.0,0.,12.0
1979-07-02 15:35:15.980 ,3,1,0.,12.0,0.,12.0,0.,12.0,0.,12.0
1979-07-02 15:35:27.980 ,3,1,0.,12.0,0.,12.0,0.,12.0,0.,12.0
1979-07-02 15:35:39.980 ,7,1,0.,12.0,0.,12.0,0.,12.0,0.,12.0
1979-07-02 15:35:51.980 ,7,1,0.,12.0,0.,12.0,0.,12.0,0.,12.0
1979-07-02 15:36:03.980 ,4,1,0.,12.0,0.,12.0,0.,12.0,0.,12.0
1979-07-02 15:36:15.980 ,4,1,0.,12.0,0.,12.0,0.,12.0,0.,12.0
1979-07-02 15:36:27.980 ,0,1,0.,12.0,0.,12.0,0.,12.0,0.,12.0
1979-07-02 15:36:39.980 ,0,1,0.,12.0,0.,12.0,0.,12.0,0.,12.0
1979-07-02 15:36:51.980 ,3,1,0.,12.0,0.,12.0,0.,12.0,0.,12.0
1979-07-02 15:37:03.980 ,3,1,0.,12.0,0.,12.0,0.,12.0,0.,12.0
1979-07-02 15:37:15.980 ,7,1,0.,12.0,0.,12.0,0.,12.0,0.,12.0
1979-07-02 15:37:27.980 ,7,1,0.,12.0,0.,12.0,0.,12.0,0.,12.0
1979-07-02 15:37:39.980 ,4,1,0.,12.0,0.,12.0,0.,12.0,0.,12.0
1979-07-02 15:37:51.980 ,4,1,0.,12.0,0.,12.0,0.,12.0,0.,12.0
1979-07-02 15:38:03.980 ,0,1,0.,12.0,0.,12.0,0.,12.0,0.,12.0
1979-07-02 15:38:15.980 ,0,1,0.,12.0,0.,12.0,0.,12.0,0.,12.0
1979-07-02 15:38:27.980 ,3,1,0.,12.0,0.,12.0,0.,12.0,0.,12.0
1979-07-02 15:38:39.980 ,3,1,0.,12.0,0.,12.0,0.,12.0,0.,12.0
1979-07-02 15:38:51.980 ,7,1,0.,12.0,0.,12.0,0.,12.0,0.,12.0
1979-07-02 15:39:03.980 ,7,1,0.,12.0,0.,12.0,0.,12.0,0.,12.0
1979-07-02 15:39:15.980 ,4,1,0.,12.0,0.,12.0,0.,12.0,0.,12.0
1979-07-02 15:39:27.980 ,4,1,0.,12.0,0.,12.0,0.,12.0,0.,12.0
1979-07-02 15:39:39.980 ,0,1,0.,12.0,0.,12.0,0.,12.0,0.,12.0
1979-07-02 15:39:51.980 ,0,1,0.,12.0,0.,12.0,0.,12.0,0.,12.0
1979-07-02 15:40:03.980 ,3,1,0.,12.0,0.,12.0,0.,12.0,0.,12.0
1979-07-02 15:40:15.980 ,3,1,0.,12.0,0.,12.0,0.,12.0,0.,12.0
1979-07-02 15:40:27.980 ,7,1,0.,12.0,0.,12.0,0.,12.0,0.,12.0
1979-07-02 15:40:39.980 ,7,1,0.,12.0,0.,12.0,0.,12.0,0.,12.0
1979-07-02 15:40:51.980 ,4,1,0.,12.0,0.,12.0,0.,12.0,0.,12.0
1979-07-02 15:41:03.980 ,4,1,0.,12.0,0.,12.0,0.,12.0,0.,12.0
1979-07-02 15:41:15.980 ,0,1,0.,12.0,0.,12.0,0.,12.0,0.,12.0
1979-07-02 15:41:27.980 ,0,1,0.,12.0,0.,12.0,0.,12.0,0.,12.0
1979-07-02 15:41:39.980 ,0,0,0.,12.0,0.,12.0,0.,12.0,0.,12.0
1979-07-02 15:41:51.980 ,0,0,0.,12.0,0.,12.0,0.,12.0,0.,12.0
1979-07-02 15:42:03.980 ,0,0,0.,12.0,0.,12.0,0.,12.0,0.,12.0
1979-07-02 15:42:15.980 ,0,0,0.,12.0,0.,12.0,0.,12.0,0.,12.0
1979-07-02 15:42:27.980 ,5,1,0.,12.0,0.,12.0,0.,12.0,0.,12.0
1979-07-02 15:42:39.980 ,5,1,0.,12.0,0.,12.0,0.,12.0,0.,12.0
1979-07-02 15:42:51.980 ,5,0,0.,12.0,0.,12.0,0.,12.0,0.,12.0
1979-07-02 15:43:03.980 ,5,0,0.,12.0,0.,12.0,0.,12.0,0.,12.0
1979-07-02 15:43:15.980 ,4,1,0.,12.0,0.,12.0,0.,12.0,0.,12.0
1979-07-02 15:43:27.980 ,4,1,0.,12.0,0.,12.0,0.,12.0,0.,12.0
1979-07-02 15:43:39.980 ,4,0,0.,12.0,0.,12.0,0.,12.0,0.,12.0
1979-07-02 15:43:51.980 ,4,0,0.,12.0,0.,12.0,0.,12.0,0.,12.0
1979-07-02 15:44:03.980 ,3,1,0.,12.0,0.,12.0,0.,12.0,0.,12.0
1979-07-02 15:44:15.980 ,3,1,0.,12.0,0.,12.0,0.,12.0,0.,12.0
1979-07-02 15:44:27.980 ,3,0,0.,12.0,0.,12.0,0.,12.0,0.,12.0
1979-07-02 15:44:39.980 ,3,0,0.,12.0,0.,12.0,0.,12.0,0.,12.0
1979-07-02 15:44:51.980 ,2,1,0.,12.0,0.,12.0,0.,12.0,0.,12.0
1979-07-02 15:45:03.980 ,2,1,0.,12.0,0.,12.0,0.,12.0,0.,12.0
1979-07-02 15:45:15.980 ,2,0,0.,12.0,0.,12.0,0.,12.0,0.,12.0
1979-07-02 15:45:27.980 ,2,0,0.,12.0,0.,12.0,0.,12.0,0.,12.0
1979-07-02 15:45:39.980 ,1,1,0.,12.0,0.,12.0,0.,12.0,0.,12.0
1979-07-02 15:45:51.980 ,1,1,0.,12.0,0.,12.0,0.,12.0,0.,12.0
1979-07-02 15:46:03.980 ,1,0,0.,12.0,0.,12.0,0.,12.0,0.,12.0
1979-07-02 15:46:15.980 ,1,0,0.,12.0,0.,12.0,0.,12.0,0.,12.0
1979-07-02 15:46:27.980 ,0,1,0.,12.0,0.,12.0,0.,12.0,0.,12.0
1979-07-02 15:46:39.980 ,0,1,0.,12.0,0.,12.0,0.,12.0,0.,12.0
1979-07-02 15:46:51.980 ,0,0,0.,12.0,0.,12.0,0.,12.0,0.,12.0
1979-07-02 15:47:03.980 ,0,0,0.,12.0,0.,12.0,0.,12.0,0.,12.0
1979-07-02 15:47:15.980 ,0,1,0.,12.0,0.,12.0,0.,12.0,0.,12.0
1979-07-02 15:47:27.980 ,0,1,0.,12.0,0.,12.0,0.,12.0,0.,12.0
1979-07-02 15:47:39.980 ,0,0,0.,12.0,0.,12.0,0.,12.0,0.,12.0
1979-07-02 15:47:51.980 ,0,0,0.,12.0,0.,12.0,0.,12.0,0.,12.0
1979-07-02 15:48:03.980 ,1,1,0.,12.0,0.,12.0,0.,12.0,0.,12.0
1979-07-02 15:48:15.980 ,1,1,0.,12.0,0.,12.0,0.,12.0,0.,12.0
1979-07-02 15:48:27.980 ,1,0,0.,12.0,0.,12.0,0.,12.0,0.,12.0
1979-07-02 15:48:39.980 ,1,0,0.,12.0,0.,12.0,0.,12.0,0.,12.0
1979-07-02 15:48:51.980 ,2,1,0.,12.0,0.,12.0,0.,12.0,0.,12.0
1979-07-02 15:49:03.980 ,2,1,0.,12.0,0.,12.0,0.,12.0,0.,12.0
1979-07-02 15:49:15.980 ,2,0,0.,12.0,0.,12.0,0.,12.0,0.,12.0
1979-07-02 15:49:27.980 ,2,0,0.,12.0,0.,12.0,0.,12.0,0.,12.0
1979-07-02 15:49:39.980 ,3,1,0.,12.0,0.,12.0,0.,12.0,0.,12.0
1979-07-02 15:49:51.980 ,3,1,0.,12.0,0.,12.0,0.,12.0,0.,12.0
1979-07-02 15:50:03.980 ,3,0,0.,12.0,0.,12.0,0.,12.0,0.,12.0
1979-07-02 15:50:15.980 ,3,0,0.,12.0,0.,12.0,0.,12.0,0.,12.0
1979-07-02 15:50:27.980 ,4,1,0.,12.0,0.,12.0,0.,12.0,0.,12.0
1979-07-02 15:50:39.980 ,4,1,0.,12.0,0.,12.0,0.,12.0,0.,12.0
1979-07-02 15:50:51.980 ,4,0,0.,12.0,0.,12.0,0.,12.0,0.,12.0
1979-07-02 15:51:03.980 ,4,0,0.,12.0,0.,12.0,0.,12.0,0.,12.0
1979-07-02 15:51:15.980 ,5,1,0.,12.0,0.,12.0,0.,12.0,0.,12.0
1979-07-02 15:51:27.980 ,5,1,0.,12.0,0.,12.0,0.,12.0,0.,12.0
1979-07-02 15:51:39.980 ,5,0,0.,12.0,0.,12.0,0.,12.0,0.,12.0
1979-07-02 15:51:51.980 ,5,0,0.,12.0,0.,12.0,0.,12.0,0.,12.0
1979-07-02 15:52:03.980 ,6,1,0.,12.0,0.,12.0,0.,12.0,0.,12.0
1979-07-02 15:52:15.980 ,6,1,0.,12.0,0.,12.0,0.,12.0,0.,12.0
1979-07-02 15:52:27.980 ,6,0,0.,12.0,0.,12.0,0.,12.0,0.,12.0
1979-07-02 15:52:39.980 ,6,0,0.,12.0,0.,12.0,0.,12.0,0.,12.0
1979-07-02 15:52:51.980 ,7,1,0.,12.0,0.,12.0,0.,12.0,0.,12.0
1979-07-02 15:53:03.980 ,7,1,0.,12.0,0.,12.0,0.,12.0,0.,12.0
1979-07-02 15:53:15.980 ,7,0,0.,12.0,0.,12.0,0.,12.0,0.,12.0
1979-07-02 15:53:27.980 ,7,0,0.,12.0,0.,12.0,0.,12.0,0.,12.0
1979-07-02 15:53:39.980 ,7,1,0.,12.0,0.,12.0,0.,12.0,0.,12.0
1979-07-02 15:53:51.980 ,7,1,0.,12.0,0.,12.0,0.,12.0,0.,12.0
1979-07-02 15:54:03.980 ,7,0,0.,12.0,0.,12.0,0.,12.0,0.,12.0
1979-07-02 15:54:15.980 ,7,0,0.,12.0,0.,12.0,0.,12.0,0.,12.0
1979-07-02 15:54:27.980 ,6,1,0.,12.0,0.,12.0,0.,12.0,0.,12.0
1979-07-02 15:54:39.980 ,6,1,0.,12.0,0.,12.0,0.,12.0,0.,12.0
1979-07-02 15:54:51.980 ,6,0,0.,12.0,0.,12.0,0.,12.0,0.,12.0
1979-07-02 15:55:03.980 ,6,0,0.,12.0,0.,12.0,0.,12.0,0.,12.0
1979-07-02 15:55:15.980 ,5,1,0.,12.0,0.,12.0,0.,12.0,0.,12.0
1979-07-02 15:55:27.980 ,5,1,0.,12.0,0.,12.0,0.,12.0,0.,12.0
1979-07-02 15:55:39.980 ,5,0,0.,12.0,0.,12.0,0.,12.0,0.,12.0
1979-07-02 15:55:51.980 ,5,0,0.,12.0,0.,12.0,0.,12.0,0.,12.0
1979-07-02 15:56:03.980 ,4,1,0.,12.0,0.,12.0,0.,12.0,0.,12.0
1979-07-02 15:56:15.980 ,4,1,0.,12.0,0.,12.0,0.,12.0,0.,12.0
1979-07-02 15:56:27.980 ,4,0,0.,12.0,0.,12.0,0.,12.0,0.,12.0
1979-07-02 15:56:39.980 ,4,0,0.,12.0,0.,12.0,0.,12.0,0.,12.0
1979-07-02 15:56:51.980 ,3,1,0.,12.0,0.,12.0,0.,12.0,0.,12.0
1979-07-02 15:57:03.980 ,3,1,0.,12.0,0.,12.0,0.,12.0,0.,12.0
1979-07-02 15:57:15.980 ,3,0,0.,12.0,0.,12.0,0.,12.0,0.,12.0
1979-07-02 15:57:27.980 ,3,0,0.,12.0,0.,12.0,0.,12.0,0.,12.0
1979-07-02 15:57:39.980 ,2,1,0.,12.0,0.,12.0,0.,12.0,0.,12.0
1979-07-02 15:57:51.980 ,2,1,0.,12.0,0.,12.0,0.,12.0,0.,12.0
1979-07-02 15:58:03.980 ,2,0,0.,12.0,0.,12.0,0.,12.0,0.,12.0
1979-07-02 15:58:15.980 ,2,0,0.,12.0,0.,12.0,0.,12.0,0.,12.0
1979-07-02 15:58:27.980 ,1,1,0.,12.0,0.,12.0,0.,12.0,0.,12.0
1979-07-02 15:58:39.980 ,1,1,0.,12.0,0.,12.0,0.,12.0,0.,12.0
1979-07-02 15:58:51.980 ,1,0,0.,12.0,0.,12.0,0.,12.0,0.,12.0
1979-07-02 15:59:03.980 ,1,0,0.,12.0,0.,12.0,0.,12.0,0.,12.0
1979-07-02 15:59:15.980 ,0,1,0.,12.0,0.,12.0,0.,12.0,0.,12.0
1979-07-02 15:59:27.980 ,0,1,0.,12.0,0.,12.0,0.,12.0,0.,12.0
1979-07-02 15:59:39.980 ,0,0,0.,12.0,0.,12.0,0.,12.0,0.,12.0
1979-07-02 15:59:51.980 ,0,0,0.,12.0,0.,12.0,0.,12.0,0.,12.0
1979-07-02 16:00:03.980 ,0,1,0.,12.0,0.,12.0,0.,12.0,0.,12.0
1979-07-02 16:00:15.980 ,0,1,0.,12.0,0.,12.0,0.,12.0,0.,12.0
1979-07-02 16:00:27.980 ,0,0,0.,12.0,0.,12.0,0.,12.0,0.,12.0
1979-07-02 16:00:39.980 ,0,0,0.,12.0,0.,12.0,0.,12.0,0.,12.0
1979-07-02 16:00:51.980 ,1,1,0.,12.0,0.,12.0,0.,12.0,0.,12.0
1979-07-02 16:01:03.980 ,1,1,0.,12.0,0.,12.0,0.,12.0,0.,12.0
1979-07-02 16:01:15.980 ,1,0,0.,12.0,0.,12.0,0.,12.0,0.,12.0
1979-07-02 16:01:27.980 ,1,0,0.,12.0,0.,12.0,0.,12.0,0.,12.0
1979-07-02 16:01:39.980 ,2,1,0.,12.0,0.,12.0,0.,12.0,0.,12.0
1979-07-02 16:01:51.980 ,2,1,0.,12.0,0.,12.0,0.,12.0,0.,12.0
1979-07-02 16:02:03.980 ,2,0,0.,12.0,0.,12.0,0.,12.0,0.,12.0
1979-07-02 16:02:15.980 ,2,0,0.,12.0,0.,12.0,0.,12.0,0.,12.0
1979-07-02 16:02:27.980 ,3,1,0.,12.0,0.,12.0,0.,12.0,0.,12.0
1979-07-02 16:02:39.980 ,3,1,0.,12.0,0.,12.0,0.,12.0,0.,12.0
1979-07-02 16:02:51.980 ,3,0,0.,12.0,0.,12.0,0.,12.0,0.,12.0
1979-07-02 16:03:03.980 ,3,0,0.,12.0,0.,12.0,0.,12.0,0.,12.0
1979-07-02 16:03:15.980 ,4,1,0.,12.0,0.,12.0,0.,12.0,0.,12.0
1979-07-02 16:03:27.980 ,4,1,0.,12.0,0.,12.0,0.,12.0,0.,12.0
1979-07-02 16:03:39.980 ,4,0,0.,12.0,0.,12.0,0.,12.0,0.,12.0
1979-07-02 16:03:51.980 ,4,0,0.,12.0,0.,12.0,0.,12.0,0.,12.0
1979-07-02 16:04:03.980 ,5,1,0.,12.0,0.,12.0,0.,12.0,0.,12.0
1979-07-02 16:04:15.980 ,5,1,0.,12.0,0.,12.0,0.,12.0,0.,12.0
1979-07-02 16:04:27.980 ,5,0,0.,12.0,0.,12.0,0.,12.0,0.,12.0
1979-07-02 16:04:39.980 ,5,0,0.,12.0,0.,12.0,0.,12.0,0.,12.0
1979-07-02 16:04:51.980 ,6,1,0.,12.0,0.,12.0,0.,12.0,0.,12.0
1979-07-02 16:05:03.980 ,6,1,0.,12.0,0.,12.0,0.,12.0,0.,12.0
1979-07-02 16:05:15.980 ,6,0,0.,12.0,0.,12.0,0.,12.0,0.,12.0
1979-07-02 16:05:27.980 ,6,0,0.,12.0,0.,12.0,0.,12.0,0.,12.0
1979-07-02 16:05:39.980 ,7,1,0.,12.0,0.,12.0,0.,12.0,0.,12.0
1979-07-02 16:05:51.980 ,7,1,0.,12.0,0.,12.0,0.,12.0,0.,12.0
1979-07-02 16:06:03.980 ,7,0,0.,12.0,0.,12.0,0.,12.0,0.,12.0
1979-07-02 16:06:15.980 ,7,0,0.,12.0,0.,12.0,0.,12.0,0.,12.0
1979-07-02 16:06:27.980 ,7,1,0.,12.0,0.,12.0,0.,12.0,0.,12.0
1979-07-02 16:06:39.980 ,7,1,0.,12.0,0.,12.0,0.,12.0,0.,12.0
1979-07-02 16:06:51.980 ,7,0,0.,12.0,0.,12.0,0.,12.0,0.,12.0
1979-07-02 16:07:03.980 ,7,0,0.,12.0,0.,12.0,0.,12.0,0.,12.0
1979-07-02 16:07:15.980 ,6,1,0.,12.0,0.,12.0,0.,12.0,0.,12.0
1979-07-02 16:07:27.980 ,6,1,0.,12.0,0.,12.0,0.,12.0,0.,12.0
1979-07-02 16:07:39.980 ,6,0,0.,12.0,0.,12.0,0.,12.0,0.,12.0
1979-07-02 16:07:51.980 ,6,0,0.,12.0,0.,12.0,0.,12.0,0.,12.0
1979-07-02 16:08:03.980 ,5,1,0.,12.0,0.,12.0,0.,12.0,0.,12.0
1979-07-02 16:08:15.980 ,5,1,0.,12.0,0.,12.0,0.,12.0,0.,12.0
1979-07-02 16:08:27.980 ,5,0,0.,12.0,0.,12.0,0.,12.0,0.,12.0
1979-07-02 16:08:39.980 ,5,0,0.,12.0,0.,12.0,0.,12.0,0.,12.0
1979-07-02 16:08:51.980 ,4,1,0.,12.0,0.,12.0,0.,12.0,0.,12.0
1979-07-02 16:09:03.980 ,4,1,0.,12.0,0.,12.0,0.,12.0,0.,12.0
1979-07-02 16:09:15.980 ,4,0,0.,12.0,0.,12.0,0.,12.0,0.,12.0
1979-07-02 16:09:27.980 ,4,0,0.,12.0,0.,12.0,0.,12.0,0.,12.0
1979-07-02 16:09:39.980 ,3,1,0.,12.0,0.,12.0,0.,12.0,0.,12.0
1979-07-02 16:09:51.980 ,3,1,0.,12.0,0.,12.0,0.,12.0,0.,12.0
1979-07-02 16:10:03.980 ,3,0,0.,12.0,0.,12.0,0.,12.0,0.,12.0
1979-07-02 16:10:15.980 ,3,0,0.,12.0,0.,12.0,0.,12.0,0.,12.0
1979-07-02 16:10:27.980 ,2,1,0.,12.0,0.,12.0,0.,12.0,0.,12.0
1979-07-02 16:10:39.980 ,2,1,0.,12.0,0.,12.0,0.,12.0,0.,12.0
1979-07-02 16:10:51.980 ,2,0,0.,12.0,0.,12.0,0.,12.0,0.,12.0
1979-07-02 16:11:03.980 ,2,0,0.,12.0,0.,12.0,0.,12.0,0.,12.0
1979-07-02 16:11:15.980 ,1,1,0.,12.0,0.,12.0,0.,12.0,0.,12.0
1979-07-02 16:11:27.980 ,1,1,0.,12.0,0.,12.0,0.,12.0,0.,12.0
1979-07-02 16:11:39.980 ,1,0,0.,12.0,0.,12.0,0.,12.0,0.,12.0
1979-07-02 16:11:51.980 ,1,0,0.,12.0,0.,12.0,0.,12.0,0.,12.0
1979-07-02 16:12:03.980 ,0,1,0.,12.0,0.,12.0,0.,12.0,0.,12.0
1979-07-02 16:12:15.980 ,0,1,0.,12.0,0.,12.0,0.,12.0,0.,12.0
1979-07-02 16:12:27.980 ,0,0,0.,12.0,0.,12.0,0.,12.0,0.,12.0
1979-07-02 16:12:39.980 ,0,0,0.,12.0,0.,12.0,0.,12.0,0.,12.0
1979-07-02 16:12:51.980 ,0,1,0.,12.0,0.,12.0,0.,12.0,0.,12.0
1979-07-02 16:13:03.980 ,0,1,0.,12.0,0.,12.0,0.,12.0,0.,12.0
1979-07-02 16:13:15.980 ,0,0,0.,12.0,0.,12.0,0.,12.0,0.,12.0
1979-07-02 16:13:27.980 ,0,0,0.,12.0,0.,12.0,0.,12.0,0.,12.0
1979-07-02 16:13:39.980 ,1,1,0.,12.0,0.,12.0,0.,12.0,0.,12.0
1979-07-02 16:13:51.980 ,1,1,0.,12.0,0.,12.0,0.,12.0,0.,12.0
1979-07-02 16:14:03.980 ,1,0,0.,12.0,0.,12.0,0.,12.0,0.,12.0
1979-07-02 16:14:15.980 ,1,0,0.,12.0,0.,12.0,0.,12.0,0.,12.0
1979-07-02 16:14:27.980 ,2,1,0.,12.0,0.,12.0,0.,12.0,0.,12.0
1979-07-02 16:14:39.980 ,2,1,0.,12.0,0.,12.0,0.,12.0,0.,12.0
1979-07-02 16:14:51.980 ,2,0,0.,12.0,0.,12.0,0.,12.0,0.,12.0
1979-07-02 16:15:03.980 ,2,0,0.,12.0,0.,12.0,0.,12.0,0.,12.0
1979-07-02 16:15:15.980 ,3,1,0.,12.0,0.,12.0,0.,12.0,0.,12.0
1979-07-02 16:15:27.980 ,3,1,0.,12.0,0.,12.0,0.,12.0,0.,12.0
1979-07-02 16:15:39.980 ,3,0,0.,12.0,0.,12.0,0.,12.0,0.,12.0
1979-07-02 16:15:51.980 ,3,0,0.,12.0,0.,12.0,0.,12.0,0.,12.0
1979-07-02 16:16:03.980 ,4,1,0.,12.0,0.,12.0,0.,12.0,0.,12.0
1979-07-02 16:16:15.980 ,4,1,0.,12.0,0.,12.0,0.,12.0,0.,12.0
1979-07-02 16:16:27.980 ,4,0,0.,12.0,0.,12.0,0.,12.0,0.,12.0
1979-07-02 16:16:39.980 ,4,0,0.,12.0,0.,12.0,0.,12.0,0.,12.0
1979-07-02 16:16:51.980 ,5,1,0.,12.0,0.,12.0,0.,12.0,0.,12.0
1979-07-02 16:17:03.980 ,5,1,0.,12.0,0.,12.0,0.,12.0,0.,12.0
1979-07-02 16:17:15.980 ,5,0,0.,12.0,0.,12.0,0.,12.0,0.,12.0
1979-07-02 16:17:27.980 ,5,0,0.,12.0,0.,12.0,0.,12.0,0.,12.0